This is the latest recevied weather packets stored in our database for station/object K3CHZ. If no packets are shown the sender has not sent any weather packets the latest 10 day(s).
| Time | Temp. | Humidity | Pressure | Rain* | Wind** | Luminosity | Snow |
|---|---|---|---|---|---|---|---|
| 1778132536 | 12.78° C | 94% | 1011.1 hPa | 25.4 mm | - | - | - |
| 1778132236 | 12.78° C | 94% | 1010.9 hPa | 30.48 mm | - | - | - |
| 1778131937 | 12.78° C | 94% | 1011.2 hPa | 35.56 mm | - | - | - |
| 1778131637 | 12.78° C | 94% | 1011.2 hPa | 35.56 mm | - | - | - |
| 1778131339 | 12.78° C | 94% | 1011.2 hPa | 35.56 mm | - | - | - |
| 1778131040 | 12.78° C | 93% | 1010.8 hPa | 33.02 mm | - | - | - |
| 1778130740 | 13.33° C | 93% | 1010.8 hPa | 33.02 mm | - | - | - |
| 1778130440 | 13.33° C | 93% | 1010.6 hPa | 33.02 mm | - | - | - |
| 1778130139 | 13.33° C | 92% | 1010.9 hPa | 27.94 mm | - | - | - |
| 1778129840 | 13.33° C | 92% | 1011.2 hPa | 27.94 mm | - | - | - |
| 1778129539 | 13.33° C | 92% | 1011.2 hPa | 25.4 mm | - | - | - |
| 1778129240 | 13.33° C | 92% | 1011.4 hPa | 22.86 mm | - | - | - |
| 1778128940 | 13.89° C | 91% | 1011.5 hPa | 17.78 mm | - | - | - |
| 1778128641 | 13.89° C | 91% | 1010.9 hPa | 12.7 mm | - | - | - |
| 1778128339 | 13.89° C | 90% | 1011 hPa | 7.62 mm | - | - | - |
| 1778128043 | 13.89° C | 90% | 1010.8 hPa | 7.62 mm | - | - | - |
| 1778127740 | 14.44° C | 90% | 1010.9 hPa | 7.62 mm | - | - | - |
| 1778127442 | 14.44° C | 89% | 1010.9 hPa | 7.62 mm | - | - | - |
| 1778127140 | 14.44° C | 89% | 1011 hPa | 7.62 mm | - | - | - |
| 1778126847 | 15° C | 88% | 1010.6 hPa | 5.08 mm | - | - | - |
| 1778126540 | 15° C | 87% | 1010.6 hPa | 5.08 mm | - | - | - |
| 1778126240 | 15.56° C | 86% | 1010.4 hPa | 2.54 mm | - | - | - |
| 1778125940 | 15.56° C | 84% | 1010.4 hPa | 0 mm | - | - | - |
| 1778125640 | 15.56° C | 84% | 1010.5 hPa | 0 mm | - | - | - |
| 1778125340 | 15.56° C | 84% | 1010.4 hPa | 0 mm | - | - | - |
* Rain latest hour (hover to see other rain measurements)
** Current wind speed in m/s (hover to see current wind gust speed)